Location: Владивосток
(43.1151°N, 131.8856°E)
Time: 21:53:05
(UTC+10:00)

DX 1 - Pass Details

Date: 04 July 2022
Orbit: 617 x 629 km, 98.4° (Epoch: 11 August)

Event Time Altitude Azimuth Distance (km) Brightness Sun altitude
Rises 23:49:08 0° 355° (N) 2,928 ? -21.0°
Reaches altitude 10° 23:52:14 10° 331° (NNW) 2,013 ? -21.2°
Maximum altitude 23:54:34 14° 299° (WNW) 1,732 ? -21.4°
Drops below altitude 10° 23:56:54 10° 266° (W) 2,002 ? -21.5°
Sets 23:59:58 0° 242° (WSW) 2,901 ? -21.7°
